Regional Weather Roundup
Issued by NWS

Home | Current Version | Previous Version | Graphics & Text | Print | Product List | Glossary On
Versions: 1 2 3 4 5 6 7 8 9 10 11 12 13 14 15 16 17 18 19 20 21 22 23 24 25 26 27 28 29 30 31 32 33 34 35 36 37 38 39 40 41 42 43 44 45 46 47 48 49 50
000
ASUS43 KDMX 262207
RWRIA

WEATHER ROUNDUP FOR IOWA
NATIONAL WEATHER SERVICE DES MOINES IA
500 PM CDT SUN APR 26 2015

NOTE: "FAIR" INDICATES FEW OR NO CLOUDS BELOW 12,000 FEET WITH NO
SIGNIFICANT WEATHER AND/OR OBSTRUCTIONS TO VISIBILITY.

* - THESE STATIONS ARE NOT NWS STATIONS...THUS NOT UNDER NWS
QUALITY CONTROL.  THEY ALSO DO NOT REPORT WEATHER SUCH
AS PRECIPITATION OR FOG.

IAZ001>003-012>014-020>022-031>034-043>046-262300-
   NORTHWEST IOWA

CITY           SKY/WX    TMP DP  RH WIND       PRES   REMARKS
CARROLL *      SUNNY     63  30  29 E16       30.01F
CHEROKEE *     SUNNY     64  34  32 NE10G16   30.02S
DENISON *      SUNNY     63  36  36 NE13      30.00F
LE MARS *      SUNNY     66  30  26 E8G15     30.02F
ORANGE CITY *  SUNNY     64  30  27 CALM      30.02S
SHELDON *      SUNNY     66  28  24 NE10      30.01F
SIOUX CITY     SUNNY     67  32  27 SE12G21   30.01F
SPENCER        SUNNY     67  31  26 N15       30.03F
STORM LAKE *   SUNNY     63  30  29 NE13      30.03S
$$

IAZ055>058-069>071-079>083-090>094-262300-
   SOUTHWEST IOWA

CITY           SKY/WX    TMP DP  RH WIND       PRES   REMARKS
ATLANTIC *     SUNNY     61  36  39 E15       30.00F
AUDUBON *      SUNNY     63  32  31 E12G17    30.02F
CLARINDA *     SUNNY     63  34  34 E16       30.00S
COUNCIL BLFS * SUNNY     63  37  39 E14       30.00F
CRESTON *      SUNNY     61  30  31 NE20      29.99F
HARLAN  *      SUNNY     61  36  39 E9G18     30.04S
LAMONI         SUNNY     63  34  33 NE20      29.98F
RED OAK *      SUNNY     63  36  36 E15       29.99F
SHENANDOAH *   SUNNY     63  36  36 E15G21    29.99S
$$

IAZ047>049-059>061-072>074-084-262300-
   CENTRAL IOWA

CITY           SKY/WX    TMP DP  RH WIND       PRES   REMARKS
AMES           SUNNY     62  30  29 NE12      30.02F
ANKENY *       SUNNY     63  28  27 NE14      30.01F
CHARITON *     SUNNY     59  32  36 NE12G18   30.00S
DES MOINES     SUNNY     63  27  25 E10G24    30.01F
GRINNELL*      SUNNY     61  28  29 NE12G20   30.02S
KNOXVILLE *    SUNNY     61  28  29 NE9       30.00S
MARSHALLTOWN   SUNNY     61  29  29 NE18      30.01F
PELLA *        SUNNY     63  37  39 NE6       30.02F
PERRY *          N/A     63  30  29 E9G18     30.01F
$$

IAZ004>006-015-016-023>025-035-036-262300-
   NORTH CENTRAL IOWA

CITY           SKY/WX    TMP DP  RH WIND       PRES   REMARKS
ALGONA *       SUNNY     63  30  29 NE6       30.04F
CLARION *      SUNNY     63  27  25 N13G20    30.03F
ESTHERVILLE    SUNNY     63  33  32 E8        30.03F
FORT DODGE *   SUNNY     63  30  29 E10       30.04S
MASON CITY     SUNNY     62  26  25 N9        30.05F
FOREST CITY *  SUNNY     59  30  33 N5        30.04F
IOWA FALLS *     N/A     61  27  27 NE12      30.04F
$$

IAZ007>011-017>019-026>030-037>042-050>054-066-262300-
   NORTHEAST IOWA

CITY           SKY/WX    TMP DP  RH WIND       PRES   REMARKS
CEDAR RAPIDS   SUNNY     59  31  34 E6        30.00F
CHARLES CITY * SUNNY     59  25  27 E9        30.04F
CLINTON *      SUNNY     57  34  41 NE13      30.03F
DECORAH *      SUNNY     59  23  25 NE8G14    30.03S
DUBUQUE        SUNNY     59  28  30 N10       30.02F
MONTICELLO *   SUNNY     61  30  31 NE9       30.01F
OELWEIN *      SUNNY     59  25  27 NE9       30.03F
WATERLOO       SUNNY     61  27  27 N10       30.02F
$$

IAZ064-065-067-068-078-262300-
   EAST CENTRAL IOWA

CITY           SKY/WX    TMP DP  RH WIND       PRES   REMARKS
DAVENPORT      SUNNY     59  32  36 NE12G18   30.01F
IOWA CITY      SUNNY     60  33  36 N9        30.02F
MT. PLEASANT * SUNNY     59  32  36 N9        29.99F
MUSCATINE *    SUNNY     61  32  33 NE13      30.01S
QUAD CITIES    SUNNY     60  32  34 NE9       29.99F
$$

IAZ062-063-075>077-085>089-095>099-262300-
   SOUTHEAST IOWA

CITY           SKY/WX    TMP DP  RH WIND       PRES   REMARKS
BURLINGTON     SUNNY     60  33  36 N13       29.98F
FAIRFIELD *    SUNNY     59  34  38 VRB7G14   30.00F
FORT MADISON *   N/A     61  32  33 NE12      29.99F
KEOKUK *       SUNNY     61  32  33 NE9       29.97F
OSKALOOSA *      N/A     59  28  31 E12       30.01S
CENTERVILLE *  SUNNY     59  32  36 N9        30.00S
OTTUMWA        SUNNY     60  30  32 NE10      30.00F
WASHINGTON *   SUNNY     61  32  33 NE10G16   30.00F
$$

ABBREVIATIONS USED IN REMARKS
   TC - TEMPERATURES IN CELSIUS
  WCI - WIND CHILL INDEX
   HX - HEAT INDEX
  VSB - VISIBILITY
$$



USA.gov is the U.S. government's official web portal to all federal, state and local government web resources and services.